TimeEST,TemperatureF,Dew PointF,Humidity,Sea Level PressureIn,VisibilityMPH,Wind Direction,Wind SpeedMPH,Gust SpeedMPH,PrecipitationIn,Events,Conditions,WindDirDegrees,DateUTC
12:53 AM,54.0,48.0,80,30.04,10.0,West,4.6,-,N/A,,Overcast,260,2014-01-26 05:53:00
1:53 AM,53.1,46.9,80,30.03,10.0,West,4.6,-,N/A,,Clear,280,2014-01-26 06:53:00
2:53 AM,52.0,46.9,83,30.03,10.0,Calm,Calm,-,N/A,,Clear,0,2014-01-26 07:53:00
3:53 AM,51.1,46.9,86,30.03,10.0,WNW,3.5,-,N/A,,Clear,290,2014-01-26 08:53:00
4:53 AM,48.9,45.0,86,30.03,10.0,NW,5.8,-,N/A,,Clear,310,2014-01-26 09:53:00
5:53 AM,44.1,41.0,89,30.05,10.0,Calm,Calm,-,N/A,,Clear,0,2014-01-26 10:53:00
6:33 AM,45.0,42.1,90,30.05,1.8,Calm,Calm,-,N/A,,Clear,0,2014-01-26 11:33:00
6:38 AM,43.0,41.0,93,30.05,0.5,Calm,Calm,-,N/A,Fog,Fog,0,2014-01-26 11:38:00
6:46 AM,42.1,39.0,89,30.06,1.0,Calm,Calm,-,N/A,,Mist,0,2014-01-26 11:46:00
6:48 AM,42.8,39.2,87,30.06,2.5,Calm,Calm,-,N/A,,Partly Cloudy,0,2014-01-26 11:48:00
6:53 AM,42.1,39.0,89,30.06,5.0,Calm,Calm,-,N/A,,Partly Cloudy,0,2014-01-26 11:53:00
7:53 AM,42.1,39.0,89,30.06,10.0,Calm,Calm,-,N/A,,Clear,0,2014-01-26 12:53:00
8:53 AM,48.0,45.0,89,30.07,9.0,Calm,Calm,-,N/A,,Clear,0,2014-01-26 13:53:00
9:32 AM,50.0,46.0,86,30.09,10.0,NNW,3.5,-,N/A,,Scattered Clouds,340,2014-01-26 14:32:00
9:53 AM,51.1,46.9,86,30.09,10.0,North,3.5,-,N/A,,Partly Cloudy,350,2014-01-26 14:53:00
10:53 AM,54.0,45.0,72,30.09,10.0,Calm,Calm,-,N/A,,Clear,0,2014-01-26 15:53:00
11:53 AM,57.0,43.0,59,30.08,10.0,Calm,Calm,-,N/A,,Clear,0,2014-01-26 16:53:00
12:53 PM,57.9,41.0,53,30.05,10.0,SSE,3.5,-,N/A,,Clear,160,2014-01-26 17:53:00
1:53 PM,61.0,36.0,39,30.02,10.0,Variable,3.5,-,N/A,,Clear,0,2014-01-26 18:53:00
2:53 PM,61.0,39.9,46,30.01,10.0,Variable,4.6,-,N/A,,Clear,0,2014-01-26 19:53:00
3:53 PM,60.1,44.1,55,29.99,10.0,SE,3.5,-,N/A,,Clear,140,2014-01-26 20:53:00
4:53 PM,59.0,46.0,62,29.99,10.0,East,5.8,-,N/A,,Clear,90,2014-01-26 21:53:00
5:53 PM,55.9,46.9,72,29.99,10.0,Calm,Calm,-,N/A,,Clear,0,2014-01-26 22:53:00
6:53 PM,53.1,46.0,77,30.00,10.0,ESE,3.5,-,N/A,,Clear,110,2014-01-26 23:53:00
7:53 PM,51.1,46.0,83,29.99,10.0,ESE,3.5,-,N/A,,Clear,110,2014-01-27 00:53:00
8:53 PM,50.0,45.0,83,30.00,10.0,South,3.5,-,N/A,,Clear,180,2014-01-27 01:53:00
9:53 PM,48.9,45.0,86,30.02,10.0,NNW,4.6,-,N/A,,Mostly Cloudy,330,2014-01-27 02:53:00
10:53 PM,48.0,44.1,86,30.02,10.0,Calm,Calm,-,N/A,,Clear,0,2014-01-27 03:53:00
11:53 PM,48.0,45.0,89,30.01,7.0,Calm,Calm,-,N/A,,Clear,0,2014-01-27 04:53:00